�������l�o���
Date,Time,MP-1(��Sv/h),MP-2(��Sv/h),MP-3(��Sv/h),MP-4(��Sv/h),MP-5(��Sv/h),MP-6(��Sv/h),MP-7(��Sv/h),MP-8(��Sv/h),����,����(m/s),���J
2019/01/11,00:00,0.792,1.182,0.822,1.514,1.077,0.454,0.802,0.761,��,4.4,��
2019/01/11,00:10,0.793,1.181,0.829,1.512,1.077,0.453,0.803,0.761,���k��,4.6,��
2019/01/11,00:20,0.792,1.182,0.828,1.513,1.076,0.453,0.804,0.759,��,5.3,��
2019/01/11,00:30,0.792,1.179,0.825,1.513,1.075,0.455,0.802,0.760,��,4.7,��
2019/01/11,00:40,0.792,1.181,0.826,1.511,1.077,0.453,0.802,0.760,���쐼,4.6,��
2019/01/11,00:50,0.791,1.179,0.822,1.511,1.078,0.455,0.800,0.761,��,3.1,��
2019/01/11,01:00,0.792,1.179,0.823,1.512,1.077,0.454,0.802,0.760,���k��,2.9,��
2019/01/11,01:10,0.792,1.181,0.821,1.511,1.076,0.454,0.804,0.760,�k��,2.5,��
2019/01/11,01:20,0.791,1.178,0.822,1.509,1.077,0.454,0.803,0.758,�k��,3.2,��
2019/01/11,01:30,0.790,1.179,0.824,1.511,1.077,0.455,0.802,0.760,�k��,3.0,��
2019/01/11,01:40,0.792,1.180,0.829,1.511,1.076,0.453,0.802,0.761,�k�k��,2.5,��
2019/01/11,01:50,0.791,1.180,0.830,1.513,1.077,0.454,0.800,0.759,�k�k��,4.4,��
2019/01/11,02:00,0.791,1.182,0.830,1.513,1.076,0.454,0.802,0.759,�k�k��,4.6,��
2019/01/11,02:10,0.791,1.180,0.830,1.512,1.077,0.453,0.804,0.762,�k�k��,7.0,��
2019/01/11,02:20,0.790,1.181,0.832,1.510,1.076,0.455,0.803,0.760,���k��,8.2,��
2019/01/11,02:30,0.792,1.178,0.832,1.515,1.075,0.453,0.803,0.760,���k��,8.7,��
2019/01/11,02:40,0.791,1.179,0.830,1.513,1.077,0.454,0.803,0.759,���k��,6.9,��
2019/01/11,02:50,0.791,1.180,0.831,1.514,1.076,0.454,0.802,0.759,�k��,7.1,��
2019/01/11,03:00,0.791,1.181,0.831,1.512,1.077,0.453,0.802,0.760,�k��,6.6,��
2019/01/11,03:10,0.791,1.181,0.832,1.513,1.076,0.454,0.803,0.760,�k��,8.2,��
2019/01/11,03:20,0.791,1.178,0.831,1.511,1.074,0.453,0.801,0.760,�k��,6.9,��
2019/01/11,03:30,0.791,1.180,0.830,1.512,1.076,0.454,0.803,0.759,���k��,5.0,��
2019/01/11,03:40,0.791,1.183,0.828,1.513,1.075,0.454,0.801,0.759,���k��,3.4,��
2019/01/11,03:50,0.793,1.179,0.831,1.511,1.076,0.454,0.802,0.759,��,2.8,��
2019/01/11,04:00,0.792,1.179,0.829,1.513,1.076,0.454,0.802,0.760,�k��,3.4,��
2019/01/11,04:10,0.790,1.181,0.829,1.509,1.076,0.454,0.801,0.761,��,2.6,��
2019/01/11,04:20,0.790,1.181,0.830,1.513,1.077,0.453,0.802,0.758,���k��,3.0,��
2019/01/11,04:30,0.789,1.181,0.830,1.512,1.074,0.454,0.801,0.760,���k��,1.2,��
2019/01/11,04:40,0.791,1.181,0.828,1.513,1.074,0.454,0.801,0.759,�k,1.9,��
2019/01/11,04:50,0.789,1.179,0.830,1.514,1.077,0.453,0.802,0.759,�k��,0.9,��
2019/01/11,05:00,0.791,1.183,0.830,1.512,1.077,0.454,0.803,0.761,�k��,4.8,��
2019/01/11,05:10,0.791,1.179,0.829,1.512,1.075,0.453,0.801,0.760,�k��,3.6,��
2019/01/11,05:20,0.790,1.180,0.833,1.515,1.077,0.454,0.804,0.758,�k��,7.6,��
2019/01/11,05:30,0.790,1.180,0.831,1.511,1.076,0.452,0.804,0.759,�k��,4.7,��
2019/01/11,05:40,0.793,1.178,0.830,1.513,1.078,0.453,0.802,0.760,�k��,6.4,��
2019/01/11,05:50,0.791,1.179,0.831,1.515,1.076,0.453,0.802,0.759,�k��,6.1,��
2019/01/11,06:00,0.791,1.183,0.830,1.513,1.076,0.454,0.804,0.761,���k��,7.5,��
2019/01/11,06:10,0.789,1.181,0.831,1.513,1.077,0.455,0.802,0.761,�k��,6.4,��
2019/01/11,06:20,0.790,1.183,0.830,1.513,1.076,0.454,0.803,0.760,�k��,7.9,��
2019/01/11,06:30,0.791,1.180,0.831,1.514,1.078,0.454,0.803,0.759,���k��,8.4,��
2019/01/11,06:40,0.792,1.180,0.830,1.514,1.076,0.453,0.804,0.760,���k��,8.3,��
2019/01/11,06:50,0.789,1.180,0.831,1.512,1.076,0.454,0.803,0.761,�k��,7.1,��
2019/01/11,07:00,0.792,1.177,0.829,1.514,1.077,0.453,0.804,0.761,�k��,8.2,��
2019/01/11,07:10,0.789,1.179,0.831,1.514,1.076,0.454,0.802,0.759,�k��,7.0,��
2019/01/11,07:20,0.791,1.181,0.830,1.514,1.075,0.453,0.803,0.760,�k��,7.3,��
2019/01/11,07:30,0.790,1.176,0.831,1.510,1.078,0.453,0.801,0.761,�k��,8.2,��
2019/01/11,07:40,0.791,1.178,0.828,1.513,1.077,0.455,0.802,0.762,�k��,5.4,��
2019/01/11,07:50,0.792,1.178,0.830,1.513,1.079,0.453,0.803,0.759,�k��,7.5,��
2019/01/11,08:00,0.791,1.180,0.829,1.512,1.076,0.455,0.801,0.759,�k��,5.3,��
2019/01/11,08:10,0.794,1.179,0.829,1.514,1.078,0.454,0.802,0.760,�k��,5.8,��
2019/01/11,08:20,0.792,1.178,0.828,1.515,1.076,0.452,0.804,0.761,�k��,3.8,��
2019/01/11,08:30,0.791,1.178,0.827,1.511,1.078,0.453,0.804,0.759,�k��,2.6,��
2019/01/11,08:40,0.791,1.177,0.827,1.512,1.078,0.453,0.803,0.759,�k,1.7,��
2019/01/11,08:50,0.792,1.177,0.827,1.513,1.078,0.453,0.803,0.760,�k��,1.5,��
2019/01/11,09:00,0.793,1.179,0.828,1.512,1.078,0.453,0.803,0.760,�k�k��,3.4,��
2019/01/11,09:10,0.793,1.176,0.830,1.512,1.076,0.453,0.803,0.761,�k�k��,8.4,��
2019/01/11,09:20,0.791,1.177,0.829,1.513,1.077,0.452,0.803,0.760,�k�k��,6.7,��
2019/01/11,09:30,0.793,1.178,0.830,1.515,1.076,0.455,0.803,0.761,�k�k��,8.9,��
2019/01/11,09:40,0.790,1.176,0.828,1.513,1.076,0.453,0.803,0.763,�k�k��,8.2,��
2019/01/11,09:50,0.793,1.173,0.829,1.513,1.078,0.453,0.804,0.762,�k�k��,11.6,��
2019/01/11,10:00,0.792,1.174,0.831,1.513,1.078,0.454,0.802,0.760,�k�k��,9.9,��
2019/01/11,10:10,0.792,1.175,0.830,1.513,1.077,0.453,0.803,0.760,�k�k��,8.6,��
2019/01/11,10:20,0.791,1.175,0.829,1.513,1.078,0.454,0.803,0.760,�k�k��,10.0,��
2019/01/11,10:30,0.790,1.173,0.826,1.512,1.078,0.453,0.801,0.762,�k�k��,8.6,��
2019/01/11,10:40,0.793,1.175,0.828,1.512,1.077,0.454,0.801,0.759,�k,7.3,��
2019/01/11,10:50,0.795,1.176,0.831,1.511,1.077,0.451,0.803,0.759,�k�k��,7.8,��
2019/01/11,11:00,0.792,1.173,0.829,1.516,1.077,0.453,0.801,0.760,�k�k��,7.8,��
2019/01/11,11:10,0.793,1.177,0.831,1.515,1.078,0.452,0.803,0.760,�k�k��,7.5,��
2019/01/11,11:20,0.794,1.178,0.829,1.514,1.078,0.452,0.802,0.761,�k,7.6,��
2019/01/11,11:30,0.794,1.178,0.832,1.512,1.079,0.453,0.802,0.761,�k�k��,6.2,��
2019/01/11,11:40,0.792,1.177,0.830,1.515,1.079,0.455,0.802,0.759,�k�k��,6.6,��
2019/01/11,11:50,0.794,1.178,0.830,1.513,1.080,0.453,0.800,0.760,�k,5.9,��
2019/01/11,12:00,0.792,1.178,0.829,1.511,1.080,0.453,0.802,0.761,�k,7.9,��
2019/01/11,12:10,0.792,1.179,0.833,1.514,1.080,0.454,0.801,0.762,�k,8.3,��
2019/01/11,12:20,0.794,1.181,0.830,1.516,1.082,0.454,0.799,0.761,�k,8.0,��
2019/01/11,12:30,0.795,1.179,0.833,1.514,1.080,0.454,0.801,0.760,�k,7.2,��
2019/01/11,12:40,0.793,1.174,0.831,1.516,1.082,0.453,0.801,0.763,�k,7.1,��
2019/01/11,12:50,0.793,1.175,0.831,1.515,1.082,0.452,0.800,0.760,�k,7.6,��
2019/01/11,13:00,0.794,1.175,0.829,1.515,1.079,0.453,0.800,0.760,�k�k��,8.4,��
2019/01/11,13:10,0.792,1.176,0.830,1.515,1.079,0.452,0.801,0.759,�k,8.3,��
2019/01/11,13:20,0.794,1.177,0.829,1.514,1.079,0.453,0.800,0.756,�k,8.9,��
2019/01/11,13:30,0.792,1.174,0.829,1.513,1.081,0.452,0.802,0.759,�k,8.3,��
2019/01/11,13:40,0.795,1.175,0.830,1.514,1.079,0.453,0.802,0.758,�k,8.5,��
2019/01/11,13:50,0.792,1.177,0.830,1.512,1.079,0.452,0.801,0.758,�k,8.4,��
2019/01/11,14:00,0.793,1.173,0.829,1.514,1.081,0.451,0.801,0.760,�k,7.9,��
2019/01/11,14:10,0.794,1.178,0.829,1.515,1.080,0.454,0.802,0.760,�k,8.4,��
2019/01/11,14:20,0.792,1.177,0.831,1.512,1.079,0.454,0.803,0.759,�k,7.8,��
2019/01/11,14:30,0.794,1.178,0.831,1.512,1.078,0.452,0.800,0.760,�k,5.7,��
2019/01/11,14:40,0.794,1.177,0.830,1.514,1.082,0.454,0.803,0.760,�k,5.5,��
2019/01/11,14:50,0.795,1.185,0.830,1.515,1.082,0.454,0.803,0.759,�k�k��,6.0,��
2019/01/11,15:00,0.793,1.181,0.831,1.517,1.081,0.453,0.802,0.761,�k�k��,6.2,��
2019/01/11,15:10,0.794,1.181,0.830,1.514,1.080,0.453,0.802,0.759,�k��,5.5,��
2019/01/11,15:20,0.792,1.182,0.831,1.513,1.081,0.452,0.802,0.759,���k��,5.3,��
2019/01/11,15:30,0.792,1.181,0.830,1.514,1.080,0.452,0.801,0.759,���k��,4.7,��
2019/01/11,15:40,0.793,1.181,0.831,1.512,1.082,0.452,0.802,0.760,���k��,5.0,��
2019/01/11,15:50,0.794,1.181,0.830,1.516,1.080,0.453,0.801,0.759,���k��,4.1,��
2019/01/11,16:00,0.792,1.181,0.830,1.513,1.080,0.451,0.802,0.760,�k��,5.3,��
2019/01/11,16:10,0.793,1.181,0.828,1.512,1.080,0.451,0.803,0.760,���k��,5.7,��
2019/01/11,16:20,0.793,1.183,0.830,1.513,1.081,0.452,0.803,0.760,�k��,4.9,��
2019/01/11,16:30,0.791,1.183,0.829,1.515,1.081,0.451,0.803,0.759,�k��,4.5,��
2019/01/11,16:40,0.793,1.183,0.828,1.513,1.079,0.454,0.801,0.759,�k��,4.7,��
2019/01/11,16:50,0.790,1.184,0.830,1.512,1.078,0.453,0.802,0.759,�k��,6.2,��
2019/01/11,17:00,0.793,1.183,0.831,1.514,1.078,0.452,0.803,0.758,�k��,6.4,��
2019/01/11,17:10,0.792,1.180,0.829,1.515,1.078,0.452,0.802,0.758,�k��,5.6,��
2019/01/11,17:20,0.792,1.185,0.831,1.511,1.081,0.451,0.802,0.758,�k�k��,4.7,��
2019/01/11,17:30,0.792,1.184,0.828,1.512,1.078,0.452,0.800,0.758,�k�k��,4.4,��
2019/01/11,17:40,0.791,1.181,0.829,1.510,1.078,0.450,0.800,0.757,�k�k��,5.3,��
2019/01/11,17:50,0.791,1.185,0.828,1.514,1.078,0.451,0.800,0.758,�k��,5.7,��
2019/01/11,18:00,0.791,1.181,0.830,1.513,1.078,0.450,0.800,0.758,�k��,5.2,��
2019/01/11,18:10,0.791,1.183,0.830,1.512,1.077,0.452,0.801,0.758,�k�k��,5.4,��
2019/01/11,18:20,0.790,1.183,0.829,1.511,1.080,0.451,0.799,0.758,�k��,5.7,��
2019/01/11,18:30,0.790,1.185,0.822,1.513,1.079,0.450,0.801,0.758,�k�k��,4.8,��
2019/01/11,18:40,0.790,1.181,0.826,1.513,1.079,0.451,0.800,0.757,�k�k��,4.8,��
2019/01/11,18:50,0.791,1.182,0.827,1.512,1.076,0.451,0.799,0.759,�k�k��,5.6,��
2019/01/11,19:00,0.792,1.182,0.826,1.511,1.077,0.451,0.799,0.758,�k�k��,4.8,��
2019/01/11,19:10,0.791,1.182,0.825,1.511,1.077,0.451,0.798,0.759,�k�k��,4.8,��
2019/01/11,19:20,0.792,1.183,0.824,1.514,1.078,0.451,0.799,0.758,�k�k��,4.1,��
2019/01/11,19:30,0.791,1.184,0.823,1.512,1.077,0.450,0.798,0.758,�k��,3.6,��
2019/01/11,19:40,0.789,1.182,0.823,1.511,1.078,0.450,0.799,0.759,�k��,4.7,��
2019/01/11,19:50,0.790,1.181,0.825,1.510,1.075,0.451,0.799,0.757,�k��,4.4,��
2019/01/11,20:00,0.790,1.184,0.826,1.511,1.078,0.449,0.799,0.760,�k��,3.7,��
2019/01/11,20:10,0.789,1.182,0.825,1.510,1.077,0.451,0.800,0.758,�k��,3.6,��
2019/01/11,20:20,0.791,1.182,0.825,1.513,1.076,0.451,0.799,0.757,�k��,2.6,��
2019/01/11,20:30,0.790,1.183,0.825,1.511,1.077,0.452,0.799,0.758,�k��,1.9,��
2019/01/11,20:40,0.788,1.183,0.824,1.510,1.076,0.450,0.798,0.759,�k�k��,2.6,��
2019/01/11,20:50,0.790,1.184,0.822,1.513,1.076,0.451,0.800,0.759,�k��,4.6,��
2019/01/11,21:00,0.789,1.182,0.821,1.513,1.076,0.451,0.797,0.757,�k�k��,3.8,��
2019/01/11,21:10,0.789,1.183,0.820,1.509,1.077,0.450,0.799,0.758,�k�k��,4.8,��
2019/01/11,21:20,0.790,1.181,0.823,1.510,1.076,0.451,0.799,0.758,�k�k��,5.6,��
2019/01/11,21:30,0.789,1.181,0.823,1.511,1.075,0.449,0.798,0.757,�k�k��,4.8,��
2019/01/11,21:40,0.790,1.182,0.824,1.510,1.078,0.451,0.799,0.758,�k��,5.0,��
2019/01/11,21:50,0.789,1.182,0.827,1.515,1.077,0.452,0.799,0.758,�k��,5.0,��
2019/01/11,22:00,0.789,1.181,0.822,1.514,1.076,0.449,0.798,0.758,�k��,6.0,��
2019/01/11,22:10,0.790,1.181,0.823,1.511,1.077,0.450,0.800,0.757,�k��,7.1,��
2019/01/11,22:20,0.789,1.182,0.822,1.510,1.076,0.450,0.797,0.757,���k��,5.8,��
2019/01/11,22:30,0.790,1.182,0.823,1.510,1.076,0.449,0.799,0.756,���k��,5.1,��
2019/01/11,22:40,0.790,1.183,0.822,1.512,1.077,0.450,0.798,0.756,���k��,4.5,��
2019/01/11,22:50,0.789,1.182,0.818,1.512,1.078,0.451,0.797,0.757,���k��,4.2,��
2019/01/11,23:00,0.791,1.181,0.820,1.514,1.077,0.451,0.798,0.757,���k��,4.4,��
2019/01/11,23:10,0.790,1.182,0.821,1.512,1.076,0.450,0.797,0.758,���k��,3.8,��
2019/01/11,23:20,0.789,1.182,0.821,1.509,1.078,0.450,0.798,0.758,���k��,3.5,��
2019/01/11,23:30,0.788,1.181,0.822,1.510,1.077,0.451,0.801,0.758,���k��,4.3,��
2019/01/11,23:40,0.787,1.179,0.825,1.509,1.076,0.451,0.798,0.756,���k��,5.0,��
2019/01/11,23:50,0.790,1.179,0.823,1.508,1.074,0.450,0.799,0.758,���k��,5.9,��
